N8351P 13ME-CYZV

Flight info

Callsign N8351P
Flight time 2h 3m
Altitude 7000
Route ANATI Q812 YBC
Aircraft PA24/L-SDGRY/S

Departure

Time 2026-05-06 17:22
Airport Socatean Bay Airport (13ME)

Arrival

Time 2026-05-06 19:26
Airport Sept-Îles Airport (CYZV)
Time Latitude Longitude Altitude Speed Heading
2026-05-06 17:20 45.77582 -69.81210 1182 ft 12 kts 261°
2026-05-06 17:20 45.77570 -69.81341 1182 ft 14 kts 259°
2026-05-06 17:20 45.77544 -69.81476 1187 ft 13 kts 255°
2026-05-06 17:20 45.77537 -69.81538 1190 ft 3 kts 190°
2026-05-06 17:21 45.77538 -69.81487 1187 ft 5 kts 66°
2026-05-06 17:21 45.77541 -69.81476 1187 ft 0 kts 71°
2026-05-06 17:21 45.77561 -69.81387 1183 ft 34 kts 75°
2026-05-06 17:22 45.77662 -69.80820 1204 ft 73 kts 75°
2026-05-06 17:22 45.77737 -69.80065 1368 ft 80 kts 86°
2026-05-06 17:22 45.77927 -69.79325 1553 ft 82 kts 36°
2026-05-06 17:22 45.78428 -69.79093 1832 ft 75 kts
2026-05-06 17:23 45.78960 -69.79036 2050 ft 76 kts 357°
2026-05-06 17:23 45.79459 -69.79243 2278 ft 77 kts 335°
2026-05-06 17:23 45.79892 -69.79695 2474 ft 77 kts 317°
2026-05-06 17:23 45.80242 -69.80324 2660 ft 85 kts 313°
2026-05-06 17:24 45.80664 -69.80930 2912 ft 87 kts 326°
2026-05-06 17:24 45.81182 -69.81395 3154 ft 88 kts 334°
2026-05-06 17:24 45.81770 -69.81689 3395 ft 92 kts 349°
2026-05-06 17:24 45.82410 -69.81781 3633 ft 93 kts
2026-05-06 17:25 45.83069 -69.81724 3863 ft 97 kts
2026-05-06 17:25 45.83731 -69.81512 4096 ft 97 kts 22°
2026-05-06 17:25 45.84360 -69.81136 4341 ft 101 kts 33°
2026-05-06 17:25 45.84988 -69.80671 4578 ft 101 kts 35°
2026-05-06 17:26 45.85621 -69.80196 4768 ft 106 kts 35°
2026-05-06 17:26 45.86285 -69.79734 4980 ft 107 kts 31°
2026-05-06 17:26 45.86993 -69.79297 5171 ft 113 kts 26°
2026-05-06 17:26 45.87741 -69.78910 5372 ft 117 kts 17°
2026-05-06 17:27 45.88536 -69.78666 5590 ft 119 kts
2026-05-06 17:27 45.89376 -69.78530 5805 ft 123 kts 358°
2026-05-06 17:27 45.90215 -69.78507 6052 ft 121 kts 349°
2026-05-06 17:27 45.91062 -69.78605 6257 ft 122 kts 339°
2026-05-06 17:28 45.91879 -69.78807 6457 ft 118 kts 334°
2026-05-06 17:28 45.92695 -69.79007 6634 ft 119 kts 332°
2026-05-06 17:28 45.93517 -69.79176 6814 ft 120 kts 334°
2026-05-06 17:28 45.94353 -69.79313 6998 ft 122 kts 338°
2026-05-06 17:29 45.95205 -69.79405 7173 ft 124 kts 342°
2026-05-06 17:29 45.96074 -69.79447 7363 ft 126 kts 345°
2026-05-06 17:29 45.96963 -69.79380 7522 ft 131 kts 352°
2026-05-06 17:29 45.97866 -69.79200 7714 ft 132 kts 356°
2026-05-06 17:30 45.98788 -69.78955 7836 ft 143 kts
2026-05-06 17:30 45.99818 -69.78688 7921 ft 149 kts 359°
2026-05-06 17:30 46.00892 -69.78385 7752 ft 169 kts
2026-05-06 17:30 46.02002 -69.78066 8014 ft 153 kts
2026-05-06 17:31 46.03076 -69.77797 7971 ft 164 kts 360°
2026-05-06 17:31 46.04179 -69.77598 8176 ft 151 kts 358°
2026-05-06 17:31 46.05242 -69.77481 8171 ft 158 kts 352°
2026-05-06 17:31 46.06329 -69.77446 8305 ft 152 kts 347°
2026-05-06 17:32 46.07390 -69.77437 8350 ft 155 kts 346°
2026-05-06 17:32 46.08469 -69.77448 8435 ft 155 kts 345°
2026-05-06 17:32 46.09592 -69.77447 8201 ft 174 kts 347°
2026-05-06 17:32 46.10757 -69.77443 8270 ft 167 kts 348°
2026-05-06 17:33 46.12045 -69.77522 7719 ft 196 kts 348°
2026-05-06 17:33 46.13290 -69.77436 7930 ft 175 kts 355°
2026-05-06 17:33 46.14729 -69.77409 6695 ft 221 kts 348°
2026-05-06 17:33 46.15958 -69.77246 7526 ft 168 kts
2026-05-06 17:34 46.17215 -69.76957 7093 ft 194 kts
2026-05-06 17:34 46.18535 -69.76802 7108 ft 186 kts
2026-05-06 17:34 46.19823 -69.76415 6993 ft 190 kts 12°
2026-05-06 17:34 46.21099 -69.76049 6991 ft 184 kts
2026-05-06 17:35 46.22362 -69.75818 6996 ft 183 kts
2026-05-06 17:35 46.23632 -69.75699 7011 ft 182 kts 354°
2026-05-06 17:35 46.24919 -69.75684 7014 ft 187 kts 354°
2026-05-06 17:36 46.27554 -69.75427 7009 ft 192 kts 356°
2026-05-06 17:36 46.28184 -69.75396 7006 ft 194 kts 355°
2026-05-06 17:38 46.29203 -69.75515 7010 ft 198 kts 350°
2026-05-06 17:38 46.30599 -69.75735 7004 ft 206 kts 347°
2026-05-06 17:39 46.32021 -69.75703 7020 ft 204 kts
2026-05-06 17:39 46.33406 -69.75276 7004 ft 206 kts
2026-05-06 17:39 46.34803 -69.74928 7008 ft 201 kts
2026-05-06 17:39 46.36146 -69.74501 7001 ft 200 kts
2026-05-06 17:40 46.37484 -69.74108 6993 ft 191 kts
2026-05-06 17:40 46.38778 -69.73956 6976 ft 182 kts 356°
2026-05-06 17:40 46.40014 -69.73860 6983 ft 175 kts 356°
2026-05-06 17:40 46.41201 -69.73766 6994 ft 168 kts 356°
2026-05-06 17:41 46.42356 -69.73694 7009 ft 164 kts 355°
2026-05-06 17:41 46.43489 -69.73637 7010 ft 163 kts 355°
2026-05-06 17:41 46.44634 -69.73598 7012 ft 167 kts 355°
2026-05-06 17:41 46.45807 -69.73556 7021 ft 170 kts 355°
2026-05-06 17:42 46.46987 -69.73487 7026 ft 174 kts 356°
2026-05-06 17:42 46.48223 -69.73379 7019 ft 177 kts 359°
2026-05-06 17:42 46.49441 -69.73217 7016 ft 179 kts 359°
2026-05-06 17:42 46.50690 -69.73052 7014 ft 181 kts
2026-05-06 17:43 46.51956 -69.72892 7014 ft 184 kts 360°
2026-05-06 17:43 46.53236 -69.72738 7009 ft 185 kts
2026-05-06 17:43 46.54528 -69.72570 7011 ft 187 kts
2026-05-06 17:43 46.55832 -69.72401 7012 ft 189 kts 358°
2026-05-06 17:44 46.56717 -69.72318 7011 ft 189 kts 358°
2026-05-06 17:44 46.58012 -69.72226 7000 ft 189 kts 359°
2026-05-06 17:44 46.59318 -69.71959 7005 ft 189 kts
2026-05-06 17:44 46.60618 -69.71684 7006 ft 188 kts
2026-05-06 17:45 46.61906 -69.71567 7007 ft 182 kts 358°
2026-05-06 17:45 46.63166 -69.71517 7004 ft 181 kts 355°
2026-05-06 17:45 46.64419 -69.71473 7006 ft 180 kts 356°
2026-05-06 17:45 46.65671 -69.71411 7006 ft 180 kts 357°
2026-05-06 17:46 46.66922 -69.71330 7008 ft 180 kts 358°
2026-05-06 17:46 46.68173 -69.71210 7009 ft 180 kts 360°
2026-05-06 17:46 46.69419 -69.71058 7010 ft 180 kts
2026-05-06 17:46 46.70663 -69.70868 7011 ft 180 kts
2026-05-06 17:47 46.71908 -69.70676 7024 ft 180 kts
2026-05-06 17:47 46.73155 -69.70471 7022 ft 180 kts
2026-05-06 17:47 46.74400 -69.70266 7023 ft 181 kts
2026-05-06 17:47 46.75651 -69.70084 7019 ft 180 kts 359°
2026-05-06 17:48 46.76902 -69.69940 7015 ft 180 kts 358°
2026-05-06 17:48 46.78150 -69.69826 7014 ft 179 kts 357°
2026-05-06 17:48 46.79397 -69.69729 7013 ft 179 kts 356°
2026-05-06 17:48 46.80636 -69.69627 7011 ft 178 kts 356°
2026-05-06 17:49 46.81875 -69.69508 7012 ft 178 kts 356°
2026-05-06 17:49 46.83111 -69.69381 7026 ft 178 kts 356°
2026-05-06 17:49 46.84332 -69.69286 7021 ft 178 kts 355°
2026-05-06 17:49 46.85562 -69.69141 7014 ft 178 kts 358°
2026-05-06 17:50 46.86799 -69.68950 7014 ft 179 kts 359°
2026-05-06 17:50 46.88035 -69.68789 7015 ft 178 kts 357°
2026-05-06 17:50 46.89272 -69.68656 7014 ft 178 kts 356°
2026-05-06 17:50 46.90506 -69.68542 7015 ft 178 kts 356°
2026-05-06 17:51 46.91742 -69.68427 7017 ft 178 kts 356°
2026-05-06 17:51 46.92978 -69.68310 7018 ft 178 kts 354°
2026-05-06 17:51 46.94210 -69.68220 7017 ft 177 kts 356°
2026-05-06 17:51 46.95435 -69.68068 7017 ft 177 kts 358°
2026-05-06 17:52 46.96664 -69.67899 7017 ft 178 kts 358°
2026-05-06 17:52 46.97901 -69.67729 7019 ft 179 kts 358°
2026-05-06 17:52 46.99141 -69.67563 7021 ft 179 kts 358°
2026-05-06 17:52 47.00386 -69.67403 7027 ft 180 kts 357°
2026-05-06 17:53 47.01632 -69.67262 7026 ft 180 kts 356°
2026-05-06 17:53 47.02880 -69.67119 7021 ft 180 kts 357°
2026-05-06 17:53 47.04124 -69.66972 7021 ft 179 kts 356°
2026-05-06 17:53 47.05366 -69.66885 7016 ft 178 kts 355°
2026-05-06 17:54 47.06599 -69.66761 7024 ft 178 kts 356°
2026-05-06 17:54 47.07840 -69.66645 7020 ft 179 kts 356°
2026-05-06 17:54 47.09079 -69.66506 7020 ft 178 kts 358°
2026-05-06 17:54 47.10308 -69.66318 7022 ft 178 kts 358°
2026-05-06 17:55 47.11541 -69.66155 7025 ft 178 kts 358°
2026-05-06 17:55 47.12761 -69.66017 7028 ft 179 kts 356°
2026-05-06 17:55 47.14006 -69.65906 7021 ft 179 kts 356°
2026-05-06 17:55 47.15248 -69.65786 7020 ft 179 kts 356°
2026-05-06 17:56 47.16492 -69.65654 7022 ft 180 kts 356°
2026-05-06 17:56 47.17740 -69.65525 7018 ft 179 kts 357°
2026-05-06 17:56 47.18984 -69.65377 7015 ft 179 kts 357°
2026-05-06 17:56 47.20226 -69.65207 7017 ft 180 kts 358°
2026-05-06 17:57 47.21476 -69.65067 7021 ft 180 kts 356°
2026-05-06 17:57 47.22722 -69.64934 7020 ft 180 kts 356°
2026-05-06 17:57 47.23966 -69.64792 7019 ft 179 kts 356°
2026-05-06 17:57 47.25201 -69.64666 7023 ft 177 kts 357°
2026-05-06 17:58 47.26440 -69.64527 7031 ft 181 kts 356°
2026-05-06 17:58 47.27704 -69.64384 7027 ft 182 kts 358°
2026-05-06 17:58 47.28981 -69.64202 7024 ft 186 kts 355°
2026-05-06 17:58 47.30277 -69.64147 7021 ft 185 kts
2026-05-06 17:59 47.31568 -69.63858 7019 ft 189 kts
2026-05-06 17:59 47.32840 -69.63456 7017 ft 185 kts
2026-05-06 17:59 47.34112 -69.63237 7011 ft 185 kts 356°
2026-05-06 17:59 47.35390 -69.63149 7012 ft 183 kts 353°
2026-05-06 18:00 47.36659 -69.63173 7013 ft 182 kts 351°
2026-05-06 18:00 47.37926 -69.63298 7012 ft 181 kts 349°
2026-05-06 18:00 47.39185 -69.63377 7011 ft 181 kts 350°
2026-05-06 18:00 47.40444 -69.63378 7019 ft 178 kts 356°
2026-05-06 18:01 47.41671 -69.63215 7007 ft 177 kts 359°
2026-05-06 18:01 47.42882 -69.62928 7001 ft 176 kts
2026-05-06 18:01 47.44088 -69.62553 7001 ft 178 kts
2026-05-06 18:01 47.45290 -69.62226 7004 ft 178 kts
2026-05-06 18:02 47.46513 -69.62002 7004 ft 176 kts 358°
2026-05-06 18:02 47.47729 -69.61837 7009 ft 176 kts 354°
2026-05-06 18:02 47.48942 -69.61730 7007 ft 175 kts 351°
2026-05-06 18:02 47.50150 -69.61787 7005 ft 171 kts 350°
2026-05-06 18:03 47.51334 -69.61797 7004 ft 170 kts 348°
2026-05-06 18:03 47.52511 -69.61665 7001 ft 171 kts 358°
2026-05-06 18:03 47.53701 -69.61416 7005 ft 174 kts 360°
2026-05-06 18:03 47.54903 -69.61149 7008 ft 175 kts
2026-05-06 18:04 47.56114 -69.60941 7011 ft 176 kts 353°
2026-05-06 18:04 47.57339 -69.60901 7006 ft 177 kts 351°
2026-05-06 18:04 47.58565 -69.60793 7005 ft 177 kts 356°
2026-05-06 18:04 47.59793 -69.60681 7001 ft 177 kts 354°
2026-05-06 18:05 47.61013 -69.60565 7000 ft 175 kts 354°
2026-05-06 18:05 47.62224 -69.60493 7000 ft 173 kts 353°
2026-05-06 18:05 47.63425 -69.60386 7001 ft 173 kts 354°
2026-05-06 18:05 47.64626 -69.60217 7003 ft 174 kts 358°
2026-05-06 18:06 47.65833 -69.60023 7003 ft 175 kts 356°
2026-05-06 18:06 47.67045 -69.59854 7001 ft 175 kts 356°
2026-05-06 18:06 47.68252 -69.59627 7002 ft 176 kts 356°
2026-05-06 18:06 47.69456 -69.59482 6991 ft 172 kts 354°
2026-05-06 18:07 47.70648 -69.59374 6990 ft 171 kts 353°
2026-05-06 18:07 47.71816 -69.59252 6990 ft 170 kts 353°
2026-05-06 18:07 47.72957 -69.58899 6973 ft 169 kts 21°
2026-05-06 18:07 47.73909 -69.57813 6978 ft 176 kts 34°
2026-05-06 18:08 47.74914 -69.56755 6989 ft 178 kts 23°
2026-05-06 18:08 47.76050 -69.56077 6994 ft 175 kts
2026-05-06 18:08 47.77244 -69.55800 6996 ft 172 kts 354°
2026-05-06 18:08 47.78429 -69.55695 6994 ft 170 kts 354°
2026-05-06 18:09 47.79598 -69.55515 6984 ft 169 kts 359°
2026-05-06 18:09 47.80754 -69.55141 6977 ft 171 kts 13°
2026-05-06 18:09 47.81741 -69.54130 6981 ft 176 kts 33°
2026-05-06 18:09 47.82701 -69.52975 6985 ft 178 kts 37°
2026-05-06 18:10 47.83612 -69.51712 6988 ft 180 kts 41°
2026-05-06 18:10 47.84518 -69.50414 6990 ft 181 kts 41°
2026-05-06 18:10 47.85449 -69.49141 6991 ft 182 kts 38°
2026-05-06 18:10 47.86428 -69.47945 6994 ft 182 kts 33°
2026-05-06 18:11 47.87462 -69.46865 6995 ft 182 kts 28°
2026-05-06 18:11 47.88540 -69.45892 7004 ft 179 kts 24°
2026-05-06 18:11 47.89626 -69.45007 6992 ft 177 kts 21°
2026-05-06 18:11 47.90716 -69.44177 6988 ft 176 kts 21°
2026-05-06 18:12 47.91801 -69.43346 6985 ft 175 kts 21°
2026-05-06 18:12 47.92875 -69.42489 6983 ft 175 kts 23°
2026-05-06 18:12 47.93929 -69.41578 6983 ft 176 kts 26°
2026-05-06 18:12 47.94957 -69.40585 6984 ft 176 kts 29°
2026-05-06 18:13 47.95946 -69.39547 6985 ft 176 kts 31°
2026-05-06 18:13 47.96949 -69.38444 6994 ft 177 kts 32°
2026-05-06 18:13 47.97941 -69.37349 6994 ft 177 kts 31°
2026-05-06 18:13 47.98929 -69.36285 6995 ft 178 kts 30°
2026-05-06 18:14 47.99946 -69.35226 6990 ft 178 kts 29°
2026-05-06 18:14 48.00981 -69.34203 6991 ft 178 kts 27°
2026-05-06 18:14 48.02029 -69.33227 6990 ft 177 kts 25°
2026-05-06 18:14 48.03082 -69.32284 6990 ft 177 kts 25°
2026-05-06 18:15 48.04134 -69.31331 6991 ft 177 kts 26°
2026-05-06 18:15 48.05186 -69.30366 6990 ft 177 kts 26°
2026-05-06 18:15 48.06226 -69.29378 6990 ft 177 kts 27°
2026-05-06 18:15 48.07256 -69.28362 6990 ft 177 kts 28°
2026-05-06 18:16 48.08273 -69.27335 6990 ft 176 kts 28°
2026-05-06 18:16 48.09284 -69.26319 6982 ft 175 kts 28°
2026-05-06 18:16 48.10292 -69.25299 6988 ft 175 kts 28°
2026-05-06 18:16 48.11314 -69.24311 6989 ft 175 kts 26°
2026-05-06 18:17 48.12337 -69.23335 6989 ft 175 kts 27°
2026-05-06 18:17 48.13359 -69.22351 6989 ft 175 kts 27°
2026-05-06 18:17 48.14379 -69.21363 6987 ft 174 kts 27°
2026-05-06 18:17 48.15394 -69.20369 6986 ft 174 kts 27°
2026-05-06 18:18 48.16408 -69.19372 6982 ft 175 kts 27°
2026-05-06 18:18 48.17416 -69.18362 6975 ft 174 kts 28°
2026-05-06 18:18 48.18421 -69.17345 6982 ft 174 kts 28°
2026-05-06 18:18 48.19429 -69.16337 6986 ft 174 kts 28°
2026-05-06 18:19 48.20447 -69.15350 6987 ft 174 kts 27°
2026-05-06 18:19 48.21468 -69.14383 6987 ft 173 kts 27°
2026-05-06 18:19 48.22484 -69.13409 6976 ft 174 kts 26°
2026-05-06 18:19 48.23502 -69.12419 6981 ft 175 kts 27°
2026-05-06 18:20 48.24519 -69.11424 6981 ft 174 kts 27°
2026-05-06 18:20 48.25537 -69.10442 6978 ft 174 kts 27°
2026-05-06 18:20 48.26537 -69.09468 6982 ft 174 kts 28°
2026-05-06 18:20 48.27536 -69.08452 6971 ft 170 kts 29°
2026-05-06 18:21 48.28508 -69.07468 6982 ft 171 kts 28°
2026-05-06 18:21 48.29505 -69.06460 6981 ft 170 kts 28°
2026-05-06 18:21 48.30473 -69.05479 6976 ft 170 kts 28°
2026-05-06 18:21 48.31461 -69.04502 6978 ft 170 kts 26°
2026-05-06 18:22 48.32449 -69.03534 6978 ft 169 kts 27°
2026-05-06 18:22 48.33436 -69.02565 6973 ft 170 kts 27°
2026-05-06 18:22 48.34439 -69.01617 6979 ft 171 kts 25°
2026-05-06 18:22 48.35445 -69.00666 6973 ft 171 kts 27°
2026-05-06 18:23 48.36442 -68.99676 6979 ft 172 kts 28°
2026-05-06 18:23 48.37439 -68.98672 6979 ft 173 kts 30°
2026-05-06 18:23 48.38421 -68.97625 6976 ft 173 kts 28°
2026-05-06 18:23 48.39428 -68.96645 6978 ft 172 kts 26°
2026-05-06 18:24 48.40449 -68.95716 6977 ft 171 kts 26°
2026-05-06 18:24 48.41454 -68.94773 6970 ft 170 kts 27°
2026-05-06 18:24 48.42449 -68.93805 6969 ft 170 kts 28°
2026-05-06 18:24 48.43420 -68.92800 6969 ft 170 kts 30°
2026-05-06 18:25 48.44380 -68.91772 6969 ft 169 kts 28°
2026-05-06 18:25 48.45349 -68.90768 6973 ft 169 kts 28°
2026-05-06 18:25 48.46317 -68.89804 6977 ft 164 kts 27°
2026-05-06 18:25 48.47283 -68.88910 6973 ft 162 kts 26°
2026-05-06 18:26 48.48235 -68.88017 6973 ft 161 kts 26°
2026-05-06 18:26 48.49179 -68.87125 6974 ft 160 kts 27°
2026-05-06 18:26 48.50111 -68.86219 6976 ft 159 kts 28°
2026-05-06 18:26 48.51034 -68.85286 6974 ft 159 kts 29°
2026-05-06 18:27 48.51950 -68.84344 6978 ft 160 kts 30°
2026-05-06 18:27 48.52863 -68.83390 6977 ft 160 kts 30°
2026-05-06 18:27 48.53773 -68.82426 6979 ft 161 kts 30°
2026-05-06 18:27 48.54694 -68.81468 6980 ft 161 kts 29°
2026-05-06 18:28 48.55634 -68.80532 6976 ft 162 kts 28°
2026-05-06 18:28 48.56584 -68.79608 6981 ft 163 kts 27°
2026-05-06 18:28 48.57534 -68.78675 6981 ft 163 kts 28°
2026-05-06 18:28 48.58488 -68.77736 6982 ft 164 kts 28°
2026-05-06 18:29 48.59437 -68.76814 6974 ft 164 kts 29°
2026-05-06 18:29 48.60389 -68.75847 6978 ft 165 kts 29°
2026-05-06 18:29 48.61353 -68.74903 6974 ft 166 kts 27°
2026-05-06 18:29 48.62321 -68.73970 6975 ft 164 kts 27°
2026-05-06 18:30 48.63280 -68.73030 6966 ft 164 kts 29°
2026-05-06 18:30 48.64229 -68.72063 6973 ft 164 kts 29°
2026-05-06 18:30 48.65176 -68.71096 6966 ft 164 kts 29°
2026-05-06 18:30 48.66130 -68.70143 6975 ft 165 kts 29°
2026-05-06 18:31 48.67088 -68.69192 6981 ft 165 kts 29°
2026-05-06 18:31 48.68042 -68.68222 6982 ft 166 kts 30°
2026-05-06 18:31 48.69004 -68.67241 6978 ft 167 kts 30°
2026-05-06 18:31 48.69951 -68.66216 6980 ft 168 kts 33°
2026-05-06 18:32 48.70914 -68.65205 6978 ft 169 kts 33°
2026-05-06 18:32 48.71877 -68.64177 6974 ft 170 kts 28°
2026-05-06 18:32 48.72892 -68.63265 6975 ft 170 kts 27°
2026-05-06 18:32 48.73880 -68.62290 6968 ft 170 kts 31°
2026-05-06 18:33 48.74875 -68.61326 6975 ft 169 kts 27°
2026-05-06 18:33 48.75861 -68.60359 6968 ft 169 kts 29°
2026-05-06 18:33 48.76838 -68.59379 6974 ft 168 kts 30°
2026-05-06 18:33 48.77818 -68.58411 6973 ft 168 kts 30°
2026-05-06 18:34 48.78774 -68.57439 6969 ft 168 kts 27°
2026-05-06 18:34 48.79765 -68.56516 6974 ft 167 kts 31°
2026-05-06 18:34 48.80714 -68.55500 6975 ft 167 kts 29°
2026-05-06 18:34 48.81682 -68.54543 6962 ft 167 kts 26°
2026-05-06 18:35 48.82638 -68.53563 6963 ft 166 kts 32°
2026-05-06 18:35 48.83564 -68.52530 6970 ft 164 kts 30°
2026-05-06 18:35 48.84489 -68.51538 6974 ft 162 kts 30°
2026-05-06 18:35 48.85422 -68.50577 6976 ft 162 kts 28°
2026-05-06 18:36 48.86366 -68.49644 6976 ft 162 kts 28°
2026-05-06 18:36 48.87311 -68.48721 6975 ft 162 kts 28°
2026-05-06 18:36 48.88254 -68.47793 6976 ft 162 kts 28°
2026-05-06 18:36 48.88883 -68.47184 6971 ft 162 kts 28°
2026-05-06 18:37 48.89829 -68.46250 6971 ft 162 kts 28°
2026-05-06 18:37 48.90775 -68.45312 6976 ft 163 kts 28°
2026-05-06 18:37 48.91715 -68.44350 6971 ft 163 kts 30°
2026-05-06 18:37 48.92654 -68.43370 6977 ft 164 kts 30°
2026-05-06 18:38 48.93596 -68.42389 6978 ft 164 kts 30°
2026-05-06 18:38 48.94548 -68.41421 6978 ft 165 kts 29°
2026-05-06 18:38 48.95500 -68.40450 6977 ft 165 kts 30°
2026-05-06 18:38 48.96452 -68.39475 6977 ft 165 kts 29°
2026-05-06 18:39 48.97413 -68.38513 6969 ft 165 kts 28°
2026-05-06 18:39 48.98371 -68.37549 6976 ft 165 kts 29°
2026-05-06 18:39 48.99333 -68.36580 6977 ft 166 kts 29°
2026-05-06 18:40 49.01254 -68.34617 6971 ft 167 kts 30°
2026-05-06 18:40 49.02209 -68.33605 6983 ft 167 kts 31°
2026-05-06 18:40 49.03170 -68.32598 6976 ft 168 kts 29°
2026-05-06 18:40 49.04149 -68.31617 6981 ft 169 kts 29°
2026-05-06 18:41 49.05119 -68.30649 6979 ft 169 kts 29°
2026-05-06 18:41 49.06102 -68.29664 6973 ft 169 kts 28°
2026-05-06 18:41 49.07083 -68.28673 6974 ft 169 kts 30°
2026-05-06 18:41 49.08060 -68.27668 6976 ft 169 kts 30°
2026-05-06 18:42 49.09040 -68.26669 6974 ft 170 kts 28°
2026-05-06 18:42 49.10022 -68.25675 6974 ft 170 kts 30°
2026-05-06 18:42 49.10998 -68.24664 6974 ft 170 kts 30°
2026-05-06 18:42 49.11969 -68.23631 6976 ft 170 kts 31°
2026-05-06 18:43 49.12939 -68.22603 6970 ft 170 kts 31°
2026-05-06 18:43 49.13913 -68.21582 6975 ft 170 kts 31°
2026-05-06 18:43 49.14847 -68.20479 6976 ft 170 kts 37°
2026-05-06 18:43 49.15715 -68.19250 6971 ft 171 kts 42°
2026-05-06 18:44 49.16530 -68.17922 6975 ft 171 kts 45°
2026-05-06 18:44 49.17329 -68.16568 6973 ft 172 kts 45°
2026-05-06 18:44 49.18153 -68.15240 6975 ft 173 kts 43°
2026-05-06 18:44 49.19015 -68.13953 6974 ft 174 kts 39°
2026-05-06 18:45 49.19904 -68.12703 6978 ft 174 kts 39°
2026-05-06 18:45 49.20803 -68.11487 6972 ft 172 kts 38°
2026-05-06 18:45 49.21691 -68.10268 6970 ft 171 kts 39°
2026-05-06 18:45 49.22558 -68.09031 6976 ft 170 kts 40°
2026-05-06 18:46 49.23423 -68.07786 6971 ft 171 kts 41°
2026-05-06 18:46 49.24280 -68.06517 6979 ft 172 kts 43°
2026-05-06 18:46 49.25129 -68.05228 6980 ft 172 kts 43°
2026-05-06 18:46 49.25996 -68.03960 6978 ft 173 kts 44°
2026-05-06 18:47 49.26868 -68.02687 6978 ft 174 kts 39°
2026-05-06 18:47 49.27767 -68.01455 6980 ft 173 kts 40°
2026-05-06 18:47 49.28645 -68.00205 6963 ft 173 kts 40°
2026-05-06 18:47 49.29574 -67.98900 6446 ft 194 kts 41°
2026-05-06 18:48 49.30415 -67.97730 7059 ft 140 kts 40°
2026-05-06 18:48 49.31241 -67.96546 6080 ft 186 kts 42°
2026-05-06 18:48 49.32190 -67.95164 5727 ft 184 kts 44°
2026-05-06 18:48 49.33058 -67.93810 5636 ft 170 kts 46°
2026-05-06 18:49 49.33877 -67.92498 5364 ft 175 kts 45°
2026-05-06 18:49 49.34761 -67.91168 5133 ft 175 kts 43°
2026-05-06 18:49 49.35626 -67.89942 5133 ft 165 kts 42°
2026-05-06 18:49 49.36452 -67.88772 5129 ft 159 kts 43°
2026-05-06 18:50 49.37243 -67.87639 5132 ft 153 kts 43°
2026-05-06 18:50 49.38019 -67.86536 5136 ft 151 kts 43°
2026-05-06 18:50 49.38780 -67.85443 5144 ft 149 kts 43°
2026-05-06 18:50 49.39530 -67.84359 5147 ft 148 kts 43°
2026-05-06 18:51 49.40276 -67.83270 5144 ft 148 kts 43°
2026-05-06 18:51 49.41023 -67.82181 5142 ft 148 kts 43°
2026-05-06 18:51 49.41785 -67.81069 5079 ft 154 kts 43°
2026-05-06 18:51 49.42558 -67.79941 5065 ft 152 kts 44°
2026-05-06 18:52 49.43324 -67.78809 4966 ft 155 kts 43°
2026-05-06 18:52 49.44099 -67.77678 4915 ft 152 kts 44°
2026-05-06 18:52 49.44864 -67.76561 4844 ft 153 kts 44°
2026-05-06 18:52 49.45639 -67.75435 4737 ft 153 kts 44°
2026-05-06 18:53 49.46403 -67.74317 4688 ft 151 kts 44°
2026-05-06 18:53 49.47171 -67.73194 4583 ft 153 kts 44°
2026-05-06 18:53 49.47938 -67.72084 4536 ft 151 kts 44°
2026-05-06 18:53 49.48688 -67.70963 4440 ft 151 kts 45°
2026-05-06 18:54 49.49443 -67.69831 4376 ft 151 kts 44°
2026-05-06 18:54 49.50202 -67.68720 4319 ft 150 kts 44°
2026-05-06 18:54 49.50955 -67.67609 4226 ft 150 kts 44°
2026-05-06 18:54 49.51706 -67.66503 4158 ft 149 kts 45°
2026-05-06 18:55 49.52460 -67.65390 4082 ft 150 kts 44°
2026-05-06 18:55 49.53213 -67.64282 4023 ft 149 kts 45°
2026-05-06 18:55 49.53962 -67.63170 3972 ft 150 kts 45°
2026-05-06 18:55 49.54715 -67.62061 3919 ft 149 kts 44°
2026-05-06 18:56 49.55470 -67.60964 3879 ft 150 kts 45°
2026-05-06 18:56 49.56231 -67.59873 3821 ft 149 kts 43°
2026-05-06 18:56 49.56987 -67.58800 3749 ft 150 kts 45°
2026-05-06 18:56 49.57730 -67.57682 3692 ft 149 kts 45°
2026-05-06 18:57 49.58465 -67.56557 3631 ft 149 kts 46°
2026-05-06 18:57 49.59196 -67.55433 3563 ft 147 kts 45°
2026-05-06 18:57 49.59942 -67.54335 3483 ft 149 kts 44°
2026-05-06 18:57 49.60702 -67.53246 3422 ft 149 kts 44°
2026-05-06 18:58 49.61474 -67.52173 3365 ft 150 kts 43°
2026-05-06 18:58 49.62229 -67.51071 3288 ft 148 kts 46°
2026-05-06 18:58 49.62961 -67.49968 3193 ft 148 kts 46°
2026-05-06 18:58 49.63690 -67.48837 3110 ft 149 kts 47°
2026-05-06 18:59 49.64409 -67.47701 3033 ft 147 kts 47°
2026-05-06 18:59 49.65142 -67.46596 2957 ft 149 kts 46°
2026-05-06 18:59 49.65913 -67.45478 2975 ft 154 kts 44°
2026-05-06 18:59 49.66705 -67.44347 2987 ft 157 kts 45°
2026-05-06 19:00 49.67501 -67.43178 2982 ft 159 kts 44°
2026-05-06 19:00 49.68319 -67.41997 2978 ft 162 kts 46°
2026-05-06 19:00 49.69150 -67.40802 2974 ft 164 kts 45°
2026-05-06 19:00 49.69976 -67.39589 2974 ft 163 kts 47°
2026-05-06 19:01 49.70792 -67.38360 2973 ft 164 kts 47°
2026-05-06 19:01 49.71582 -67.37069 2967 ft 165 kts 50°
2026-05-06 19:01 49.72402 -67.35849 2968 ft 166 kts 44°
2026-05-06 19:01 49.73251 -67.34643 2968 ft 165 kts 45°
2026-05-06 19:02 49.74042 -67.33379 2968 ft 163 kts 47°
2026-05-06 19:02 49.74863 -67.32163 2966 ft 164 kts 46°
2026-05-06 19:02 49.75674 -67.30947 2966 ft 162 kts 46°
2026-05-06 19:02 49.76487 -67.29722 2967 ft 164 kts 46°
2026-05-06 19:03 49.77299 -67.28490 2967 ft 163 kts 45°
2026-05-06 19:03 49.78124 -67.27285 2972 ft 164 kts 46°
2026-05-06 19:03 49.78947 -67.26057 2969 ft 164 kts 44°
2026-05-06 19:03 49.79784 -67.24849 2968 ft 164 kts 44°
2026-05-06 19:04 49.80614 -67.23631 2971 ft 165 kts 44°
2026-05-06 19:04 49.81457 -67.22413 2970 ft 166 kts 45°
2026-05-06 19:04 49.82291 -67.21175 2965 ft 167 kts 44°
2026-05-06 19:04 49.83120 -67.19925 2970 ft 166 kts 44°
2026-05-06 19:05 49.83956 -67.18678 2969 ft 167 kts 45°
2026-05-06 19:05 49.84777 -67.17417 2971 ft 165 kts 46°
2026-05-06 19:05 49.85613 -67.16185 2968 ft 166 kts 46°
2026-05-06 19:05 49.86430 -67.14915 2972 ft 166 kts 48°
2026-05-06 19:06 49.87245 -67.13651 2969 ft 165 kts 46°
2026-05-06 19:06 49.88067 -67.12410 2967 ft 165 kts 45°
2026-05-06 19:06 49.88886 -67.11167 2967 ft 165 kts 46°
2026-05-06 19:06 49.89695 -67.09951 2967 ft 164 kts 45°
2026-05-06 19:07 49.90515 -67.08715 2970 ft 166 kts 49°
2026-05-06 19:07 49.91295 -67.07400 2971 ft 164 kts 45°
2026-05-06 19:07 49.92152 -67.06223 2967 ft 165 kts 41°
2026-05-06 19:07 49.93033 -67.05086 2966 ft 165 kts 39°
2026-05-06 19:08 49.93886 -67.03911 2983 ft 164 kts 46°
2026-05-06 19:08 49.94666 -67.02619 2982 ft 164 kts 50°
2026-05-06 19:08 49.95431 -67.01298 2980 ft 164 kts 49°
2026-05-06 19:08 49.96230 -67.00017 2980 ft 165 kts 46°
2026-05-06 19:09 49.97060 -66.98795 2983 ft 163 kts 44°
2026-05-06 19:09 49.97892 -66.97602 2982 ft 163 kts 44°
2026-05-06 19:09 49.98714 -66.96398 2982 ft 162 kts 46°
2026-05-06 19:09 49.99517 -66.95168 2982 ft 162 kts 45°
2026-05-06 19:10 50.00331 -66.93959 2981 ft 162 kts 45°
2026-05-06 19:10 50.01134 -66.92738 2980 ft 161 kts 46°
2026-05-06 19:10 50.01934 -66.91514 2982 ft 162 kts 46°
2026-05-06 19:10 50.02737 -66.90289 2982 ft 161 kts 45°
2026-05-06 19:11 50.03557 -66.89086 2981 ft 162 kts 45°
2026-05-06 19:11 50.04367 -66.87866 2985 ft 162 kts 46°
2026-05-06 19:11 50.05163 -66.86626 2986 ft 162 kts 47°
2026-05-06 19:11 50.05964 -66.85389 2984 ft 163 kts 46°
2026-05-06 19:12 50.06768 -66.84147 2985 ft 162 kts 47°
2026-05-06 19:12 50.07558 -66.82915 2981 ft 164 kts 47°
2026-05-06 19:12 50.08392 -66.81718 2985 ft 163 kts 45°
2026-05-06 19:12 50.09205 -66.80452 2985 ft 164 kts 46°
2026-05-06 19:13 50.10004 -66.79216 2983 ft 164 kts 47°
2026-05-06 19:13 50.10798 -66.77960 2984 ft 162 kts 47°
2026-05-06 19:13 50.11602 -66.76719 2983 ft 164 kts 45°
2026-05-06 19:13 50.12456 -66.75549 2986 ft 163 kts 43°
2026-05-06 19:14 50.13285 -66.74341 2984 ft 163 kts 45°
2026-05-06 19:14 50.14073 -66.73068 2985 ft 163 kts 50°
2026-05-06 19:14 50.14838 -66.71777 2982 ft 162 kts 47°
2026-05-06 19:14 50.15647 -66.70570 2981 ft 160 kts 44°
2026-05-06 19:15 50.16470 -66.69391 2983 ft 161 kts 45°
2026-05-06 19:15 50.17273 -66.68173 2984 ft 161 kts 46°
2026-05-06 19:15 50.18067 -66.66946 2985 ft 160 kts 46°
2026-05-06 19:15 50.18849 -66.65710 2986 ft 160 kts 46°
2026-05-06 19:16 50.19644 -66.64493 2989 ft 161 kts 46°
2026-05-06 19:16 50.20440 -66.63277 2985 ft 160 kts 46°
2026-05-06 19:16 50.21232 -66.62050 2986 ft 161 kts 47°
2026-05-06 19:16 50.22047 -66.60858 2989 ft 161 kts 39°
2026-05-06 19:17 50.23011 -66.59986 2985 ft 160 kts 23°
2026-05-06 19:17 50.24075 -66.59492 2978 ft 158 kts
2026-05-06 19:17 50.25166 -66.59269 2814 ft 160 kts
2026-05-06 19:17 50.26279 -66.59096 2674 ft 159 kts
2026-05-06 19:18 50.27361 -66.58832 2481 ft 161 kts 12°
2026-05-06 19:18 50.28440 -66.58476 2525 ft 158 kts
2026-05-06 19:18 50.29500 -66.58066 2506 ft 160 kts 34°
2026-05-06 19:18 50.30142 -66.56703 2518 ft 157 kts 74°
2026-05-06 19:19 50.30173 -66.55062 2518 ft 152 kts 107°
2026-05-06 19:19 50.29925 -66.53448 2516 ft 150 kts 108°
2026-05-06 19:19 50.29671 -66.51885 2513 ft 149 kts 112°
2026-05-06 19:19 50.29285 -66.50420 2506 ft 142 kts 123°
2026-05-06 19:20 50.28780 -66.49156 2485 ft 133 kts 130°
2026-05-06 19:20 50.28225 -66.48063 2487 ft 124 kts 136°
2026-05-06 19:20 50.27682 -66.47065 2496 ft 117 kts 135°
2026-05-06 19:20 50.27193 -66.46077 2513 ft 113 kts 131°
2026-05-06 19:21 50.26782 -66.45031 2513 ft 113 kts 124°
2026-05-06 19:21 50.26474 -66.43906 2498 ft 114 kts 115°
2026-05-06 19:21 50.26270 -66.42730 2410 ft 111 kts 110°
2026-05-06 19:21 50.26069 -66.41588 2271 ft 108 kts 111°
2026-05-06 19:22 50.25876 -66.40474 2166 ft 104 kts 114°
2026-05-06 19:22 50.25631 -66.39417 2062 ft 102 kts 119°
2026-05-06 19:22 50.25357 -66.38389 1939 ft 103 kts 118°
2026-05-06 19:22 50.25112 -66.37347 1828 ft 102 kts 111°
2026-05-06 19:23 50.24909 -66.36282 1742 ft 101 kts 115°
2026-05-06 19:23 50.24632 -66.35283 1684 ft 98 kts 120°
2026-05-06 19:23 50.24382 -66.34288 1513 ft 96 kts 114°
2026-05-06 19:23 50.24180 -66.33338 1257 ft 88 kts 115°
2026-05-06 19:24 50.23976 -66.32457 1050 ft 83 kts 112°
2026-05-06 19:24 50.23812 -66.31618 879 ft 77 kts 110°
2026-05-06 19:24 50.23639 -66.30832 764 ft 81 kts 109°
2026-05-06 19:24 50.23461 -66.30013 646 ft 78 kts 115°
2026-05-06 19:25 50.23281 -66.29207 468 ft 82 kts 113°
2026-05-06 19:25 50.23096 -66.28399 347 ft 78 kts 110°
2026-05-06 19:25 50.22923 -66.27617 212 ft 77 kts 111°
2026-05-06 19:25 50.22765 -66.26908 175 ft 56 kts 108°
2026-05-06 19:26 50.22665 -66.26469 171 ft 33 kts 108°
2026-05-06 19:26 50.22608 -66.26209 174 ft 19 kts 111°
2026-05-06 19:26 50.22580 -66.26070 176 ft 9 kts 108°
2026-05-06 19:26 50.22546 -66.25896 175 ft 19 kts 109°
2026-05-06 19:27 50.22491 -66.25672 175 ft 25 kts 110°
2026-05-06 19:27 50.22431 -66.25451 175 ft 20 kts 117°
2026-05-06 19:27 50.22377 -66.25330 176 ft 9 kts 84°
2026-05-06 19:27 50.22304 -66.25261 174 ft 20 kts 185°
2026-05-06 19:28 50.22176 -66.25263 174 ft 16 kts 202°
2026-05-06 19:28 50.22100 -66.25479 174 ft 23 kts 246°
2026-05-06 19:28 50.22045 -66.25701 174 ft 20 kts 251°
2026-05-06 19:28 50.21998 -66.25888 174 ft 17 kts 249°
2026-05-06 19:29 50.21957 -66.26048 174 ft 15 kts 251°
2026-05-06 19:29 50.21917 -66.26183 174 ft 13 kts 209°
2026-05-06 19:29 50.21872 -66.26227 174 ft 12 kts 249°
2026-05-06 19:29 50.21858 -66.26390 174 ft 11 kts 269°
2026-05-06 19:30 50.21874 -66.26424 174 ft 6 kts 28°
2026-05-06 19:30 50.21900 -66.26368 174 ft 6 kts 74°
2026-05-06 19:30 50.21906 -66.26344 174 ft 0 kts 68°